CW5316 Weather Reports


time (UTC)temp
C
wind
direction
speed
KPH
gust
KPH
rain 1hr
cm
rain 24hr
cm
rain mn
cm
humidity
%
barometer
mb
20260502181024 16 57 3.2 8.0 0.00 0.00 0.00 70 1016.5
20260502180520 16 0 1.6 6.4 0.00 0.00 0.00 68 1016.6
20260502170520 13 0 3.2 9.7 0.00 0.00 0.00 75 1016.9
20260502164022 13 125 0.0 9.7 0.00 0.00 0.00 74 1016.7
20260502163520 13 0 1.6 9.7 0.00 0.00 0.00 75 1016.7
20260502163045 13 0 0.0 6.4 0.00 0.00 0.00 75 1016.6
20260502162522 13 122 3.2 6.4 0.00 0.00 0.00 75 1016.8
20260502162024 13 126 1.6 4.8 0.00 0.00 0.00 76 1016.8
20260502161539 13 0 0.0 3.2 0.00 0.00 0.00 76 1016.9
20260502161022 13 99 0.0 4.8 0.00 0.00 0.00 75 1016.8
20260502160526 13 0 0.0 4.8 0.00 0.00 0.00 79 1016.8
20260502152021 11 0 0.0 4.8 0.00 0.00 0.00 83 1016.8
20260502151543 11 0 0.0 4.8 0.00 0.00 0.00 83 1016.8
20260502151025 11 99 0.0 4.8 0.00 0.00 0.00 83 1016.7
20260502150520 11 0 0.0 4.8 0.00 0.00 0.00 84 1016.7
20260502130519 10 0 0.0 0.0 0.00 0.00 0.00 87 1016.6
20260502123525 10 0 0.0 0.0 0.00 0.00 0.00 88 1016.8
20260502123055 10 0 0.0 0.0 0.00 0.00 0.00 87 1016.9
20260502122522 10 0 0.0 0.0 0.00 0.00 0.00 88 1016.9
20260502122022 10 0 0.0 0.0 0.00 0.00 0.00 88 1016.8
20260502121535 10 0 0.0 0.0 0.00 0.00 0.00 88 1016.8
20260502121019 10 0 0.0 0.0 0.00 0.00 0.00 88 1016.8
20260502120522 10 0 0.0 0.0 0.00 0.00 0.00 88 1016.8
20260502115520 10 0 0.0 0.0 0.00 0.00 0.00 88 1016.9
20260502115023 10 0 0.0 0.0 0.00 0.00 0.00 88 1017.0
20260502114544 10 0 0.0 0.0 0.00 0.00 0.00 88 1017.0
20260502114026 10 0 0.0 0.0 0.00 0.00 0.00 87 1017.2
20260502113518 10 0 0.0 0.0 0.00 0.00 0.00 87 1017.3
20260502113043 10 0 0.0 6.4 0.00 0.00 0.00 86 1017.5
20260502112522 11 0 0.0 6.4 0.00 0.00 0.00 86 1017.5
20260502112022 11 0 0.0 6.4 0.00 0.00 0.00 86 1017.5
20260502111541 11 0 0.0 6.4 0.00 0.00 0.00 86 1017.4
20260502111019 10 102 1.6 12.9 0.00 0.00 0.00 86 1017.3
20260502110521 10 143 1.6 12.9 0.00 0.00 0.00 87 1017.1
20260502110055 10 135 4.8 11.3 0.00 0.00 0.00 87 1017.1
20260502105523 10 123 3.2 9.7 0.00 0.00 0.00 88 1016.9
20260502105021 10 98 1.6 4.8 0.00 0.00 0.00 89 1016.9
20260502104543 10 0 0.0 1.6 0.00 0.00 0.00 87 1016.7
20260502104020 10 0 0.0 1.6 0.00 0.00 0.00 87 1016.5
20260502103521 10 0 0.0 0.0 0.00 0.00 0.00 87 1016.2
20260502103041 10 0 0.0 0.0 0.00 0.00 0.00 88 1016.2
20260502102523 10 0 0.0 1.6 0.00 0.00 0.00 88 1016.3
20260502102022 10 0 0.0 1.6 0.00 0.00 0.00 88 1016.3
20260502101601 10 0 0.0 0.0 0.00 0.00 0.00 88 1016.3
20260502101019 10 0 0.0 0.0 0.00 0.00 0.00 88 1016.3
20260502100521 10 0 0.0 0.0 0.00 0.00 0.00 88 1016.3
20260502091019 11 0 0.0 0.0 0.00 0.00 0.00 86 1016.6
20260502090527 11 0 0.0 1.6 0.00 0.00 0.00 86 1016.7
20260502071020 12 0 0.0 0.0 0.00 0.00 0.00 82 1016.7
20260502070522 12 0 0.0 0.0 0.00 0.00 0.00 82 1016.8
20260502070048 12 0 0.0 0.0 0.00 0.00 0.00 82 1016.9
20260502065520 12 0 0.0 0.0 0.00 0.00 0.00 81 1016.6
20260502065020 12 0 0.0 0.0 0.00 0.00 0.00 81 1017.0
20260502064537 12 0 0.0 0.0 0.00 0.00 0.00 81 1017.1
20260502064021 12 0 0.0 0.0 0.00 0.00 0.00 81 1017.1
20260502063521 12 0 0.0 0.0 0.00 0.00 0.00 81 1017.0
20260502063037 12 0 0.0 0.0 0.00 0.00 0.00 80 1016.9
20260502062523 13 0 0.0 0.0 0.00 0.00 0.00 79 1016.7
20260502062022 13 0 0.0 0.0 0.00 0.00 0.00 78 1016.7
20260502061540 13 0 0.0 0.0 0.00 0.00 0.00 79 1016.6
20260502061020 12 0 0.0 0.0 0.00 0.00 0.00 79 1016.6
20260502060521 12 0 0.0 0.0 0.00 0.00 0.00 80 1016.6
20260502060041 13 0 0.0 0.0 0.00 0.00 0.00 79 1016.6
20260502055528 13 0 0.0 0.0 0.00 0.00 0.00 79 1016.5
20260502055022 13 0 0.0 0.0 0.00 0.00 0.00 79 1016.5
20260502054537 13 0 0.0 0.0 0.00 0.00 0.00 78 1016.5
20260502054020 13 0 0.0 0.0 0.00 0.00 0.00 78 1016.4
20260502053523 13 0 0.0 0.0 0.00 0.00 0.00 76 1016.3
20260502053037 13 0 0.0 0.0 0.00 0.00 0.00 77 1016.3
20260502052525 13 0 0.0 0.0 0.00 0.00 0.00 76 1016.2
20260502052022 13 0 0.0 1.6 0.00 0.00 0.00 77 1016.2
20260502051542 13 0 0.0 1.6 0.00 0.00 0.00 77 1016.2
20260502051019 13 0 0.0 0.0 0.00 0.00 0.00 77 1016.2
20260502050521 13 0 0.0 0.0 0.00 0.00 0.00 76 1016.1
20260502050040 13 0 0.0 0.0 0.00 0.00 0.00 75 1016.1
20260502045520 13 0 0.0 0.0 0.00 0.00 0.00 75 1016.1
20260502045022 14 0 0.0 0.0 0.00 0.00 0.00 73 1016.1
20260502044534 14 0 0.0 0.0 0.00 0.00 0.00 73 1016.2
20260502044019 14 0 0.0 0.0 0.00 0.00 0.00 72 1016.2
20260502043520 14 0 0.0 0.0 0.00 0.00 0.00 73 1016.1
20260502043035 15 0 0.0 3.2 0.00 0.00 0.00 74 1016.1
20260502042519 14 0 0.0 3.2 0.00 0.00 0.00 73 1015.9
20260502042021 14 0 0.0 0.0 0.00 0.00 0.00 73 1015.8
20260502041543 15 0 0.0 0.0 0.00 0.00 0.00 72 1015.8
20260502041021 15 0 0.0 0.0 0.00 0.00 0.00 70 1015.7
20260502040523 15 0 0.0 0.0 0.00 0.00 0.00 69 1015.7
20260502040044 15 0 0.0 0.0 0.00 0.00 0.00 69 1015.7
20260502035518 16 0 0.0 0.0 0.00 0.00 0.00 67 1015.7
20260502035021 15 0 0.0 0.0 0.00 0.00 0.00 70 1015.6
20260502034537 16 0 0.0 0.0 0.00 0.00 0.00 71 1015.5
20260502034022 16 0 0.0 0.0 0.00 0.00 0.00 69 1015.4
20260502033521 16 0 0.0 1.6 0.00 0.00 0.00 68 1015.3
20260502033050 16 0 0.0 1.6 0.00 0.00 0.00 66 1015.0
20260502032521 16 0 0.0 1.6 0.00 0.00 0.00 66 1015.1
20260502032018 16 0 0.0 1.6 0.00 0.00 0.00 67 1015.2
20260502031538 16 0 0.0 0.0 0.00 0.00 0.00 65 1015.4
20260502031019 17 0 0.0 0.0 0.00 0.00 0.00 65 1015.2
20260502030523 17 0 0.0 0.0 0.00 0.00 0.00 63 1015.1
20260502030053 17 0 0.0 1.6 0.00 0.00 0.00 63 1014.9
20260502025522 17 0 0.0 1.6 0.00 0.00 0.00 63 1014.8
20260502025021 17 0 0.0 1.6 0.00 0.00 0.00 62 1014.8
20260502024543 17 0 0.0 1.6 0.00 0.00 0.00 61 1014.7
20260502024022 17 0 0.0 1.6 0.00 0.00 0.00 62 1014.7
20260502023519 18 0 0.0 3.2 0.00 0.00 0.00 61 1014.7
20260502023059 18 0 0.0 3.2 0.00 0.00 0.00 60 1014.7
20260502022522 18 0 0.0 3.2 0.00 0.00 0.00 59 1014.6
20260502022021 18 96 0.0 3.2 0.00 0.00 0.00 58 1014.6
20260502021541 18 0 0.0 3.2 0.00 0.00 0.00 57 1014.7
20260502021020 18 0 0.0 1.6 0.00 0.00 0.00 59 1014.7
20260502020518 18 0 0.0 3.2 0.00 0.00 0.00 60 1014.7
20260502020045 19 0 0.0 3.2 0.00 0.00 0.00 57 1014.6
20260502015521 19 0 0.0 1.6 0.00 0.00 0.00 56 1014.6
20260502015023 19 0 0.0 1.6 0.00 0.00 0.00 55 1014.6
20260502014541 20 0 0.0 3.2 0.00 0.00 0.00 56 1014.6
20260502014018 20 0 0.0 3.2 0.00 0.00 0.00 57 1014.6
20260502013521 20 201 0.0 1.6 0.00 0.00 0.00 57 1014.6
20260502013040 20 0 0.0 1.6 0.00 0.00 0.00 58 1014.6
20260502012527 20 0 0.0 0.0 0.00 0.00 0.00 55 1014.6
20260502012025 20 0 0.0 3.2 0.00 0.00 0.00 56 1014.5
20260502011540 20 0 0.0 3.2 0.00 0.00 0.00 56 1014.5
20260502011021 20 0 0.0 4.8 0.00 0.00 0.00 55 1014.5
20260502010526 21 244 0.0 4.8 0.00 0.00 0.00 55 1014.5
20260502010034 21 0 0.0 3.2 0.00 0.00 0.00 54 1014.5
20260502005520 21 283 0.0 4.8 0.00 0.00 0.00 52 1014.4
20260502005019 21 0 0.0 4.8 0.00 0.00 0.00 54 1014.5
20260502004545 21 0 0.0 4.8 0.00 0.00 0.00 53 1014.4
20260502004024 21 0 0.0 4.8 0.00 0.00 0.00 52 1014.3
20260502003521 21 0 0.0 4.8 0.00 0.00 0.00 52 1014.2
20260502003041 21 114 0.0 4.8 0.00 0.00 0.00 50 1014.3
20260502002521 21 0 0.0 3.2 0.00 0.00 0.00 50 1014.3
20260502002019 22 0 0.0 4.8 0.00 0.00 0.00 50 1014.3
20260502001538 22 0 0.0 4.8 0.00 0.00 0.00 50 1014.3
20260502001022 22 282 1.6 4.8 0.00 0.00 0.00 51 1014.2
20260502000521 21 107 0.0 3.2 0.00 0.00 0.00 49 1014.3
20260502000035 22 0 0.0 8.0 0.00 0.00 0.00 51 1014.3
20260501235520 22 0 0.0 8.0 0.00 0.00 0.00 49 1014.3
20260501235019 22 121 0.0 4.8 0.00 0.00 0.00 49 1014.2
20260501234541 22 0 0.0 9.7 0.00 0.00 0.00 48 1014.2
20260501234020 22 221 0.0 11.3 0.00 0.00 0.00 48 1014.3
20260501233519 22 85 1.6 11.3 0.00 0.00 0.00 49 1014.3
20260501233039 22 301 0.0 11.3 0.00 0.00 0.00 49 1014.4
20260501232525 22 129 1.6 11.3 0.00 0.00 0.00 47 1014.4
20260501232021 22 284 3.2 11.3 0.00 0.00 0.00 47 1014.5
20260501231535 23 313 0.0 11.3 0.00 0.00 0.00 47 1014.4
20260501231021 22 0 3.2 11.3 0.00 0.00 0.00 47 1014.5
20260501230522 23 93 0.0 4.8 0.00 0.00 0.00 44 1014.4
20260501230037 23 219 0.0 4.8 0.00 0.00 0.00 45 1014.5
20260501225525 23 253 1.6 4.8 0.00 0.00 0.00 44 1014.6
20260501225023 23 0 0.0 4.8 0.00 0.00 0.00 43 1014.7
20260501224549 23 246 0.0 6.4 0.00 0.00 0.00 45 1014.8
20260501224025 23 177 0.0 6.4 0.00 0.00 0.00 45 1014.9
20260501223523 23 159 3.2 6.4 0.00 0.00 0.00 42 1015.0
20260501223051 23 252 1.6 6.4 0.00 0.00 0.00 42 1015.0
20260501222525 23 212 1.6 4.8 0.00 0.00 0.00 42 1014.9
20260501222021 23 278 0.0 4.8 0.00 0.00 0.00 40 1015.0
20260501221538 24 53 1.6 6.4 0.00 0.00 0.00 39 1015.0
20260501221023 23 310 1.6 6.4 0.00 0.00 0.00 40 1014.9
20260501220526 24 0 1.6 6.4 0.00 0.00 0.00 38 1014.9
20260501220038 23 0 1.6 11.3 0.00 0.00 0.00 41 1014.9
20260501215522 24 171 0.0 11.3 0.00 0.00 0.00 42 1014.8
20260501215022 23 184 1.6 6.4 0.00 0.00 0.00 42 1014.9
20260501214535 24 309 0.0 6.4 0.00 0.00 0.00 41 1014.9
20260501214021 23 0 0.0 6.4 0.00 0.00 0.00 40 1015.0
20260501213521 23 213 1.6 8.0 0.00 0.00 0.00 43 1015.0
20260501213034 23 0 1.6 8.0 0.00 0.00 0.00 41 1015.0
20260501212521 22 243 0.0 6.4 0.00 0.00 0.00 42 1015.1
20260501212021 22 306 0.0 6.4 0.00 0.00 0.00 48 1015.1
20260501211542 22 0 1.6 6.4 0.00 0.00 0.00 44 1015.1
20260501211020 22 324 0.0 8.0 0.00 0.00 0.00 44 1015.2
20260501210520 22 0 1.6 8.0 0.00 0.00 0.00 44 1015.1
20260501210039 22 0 1.6 6.4 0.00 0.00 0.00 42 1015.1
20260501205525 22 0 1.6 6.4 0.00 0.00 0.00 40 1015.1
20260501205021 22 87 1.6 11.3 0.00 0.00 0.00 42 1015.1
20260501204545 22 0 0.0 11.3 0.00 0.00 0.00 48 1015.2
20260501204020 21 67 3.2 9.7 0.00 0.00 0.00 47 1015.2
20260501203520 21 115 3.2 9.7 0.00 0.00 0.00 47 1015.2
20260501203050 22 139 1.6 9.7 0.00 0.00 0.00 46 1015.4
20260501202521 22 0 1.6 9.7 0.00 0.00 0.00 50 1015.3
20260501202022 22 74 0.0 6.4 0.00 0.00 0.00 49 1015.4
20260501201548 22 106 1.6 6.4 0.00 0.00 0.00 46 1015.3
20260501201019 21 289 1.6 11.3 0.00 0.00 0.00 48 1015.3
20260501200525 21 99 0.0 11.3 0.00 0.00 0.00 48 1015.3
20260501200040 21 122 0.0 8.0 0.00 0.00 0.00 50 1015.2
20260501195521 21 85 1.6 9.7 0.00 0.00 0.00 48 1015.3
20260501195021 20 0 1.6 9.7 0.00 0.00 0.00 51 1015.4
20260501194538 20 74 1.6 9.7 0.00 0.00 0.00 51 1015.4
20260501194018 20 85 0.0 6.4 0.00 0.00 0.00 51 1015.4
20260501193520 20 111 1.6 6.4 0.00 0.00 0.00 48 1015.3
20260501193039 21 0 0.0 9.7 0.00 0.00 0.00 49 1015.4
20260501192522 20 0 0.0 9.7 0.00 0.00 0.00 50 1015.4
20260501192020 21 43 1.6 9.7 0.00 0.00 0.00 49 1015.5
20260501191542 20 0 0.0 8.0 0.00 0.00 0.00 48 1015.4
20260501191020 20 43 1.6 8.0 0.00 0.00 0.00 45 1015.5
20260501190522 20 66 1.6 8.0 0.00 0.00 0.00 47 1015.6
20260501190041 20 255 0.0 3.2 0.00 0.00 0.00 47 1015.7
20260501185521 20 0 0.0 3.2 0.00 0.00 0.00 47 1015.8
20260501185020 20 0 0.0 3.2 0.00 0.00 0.00 50 1015.9
20260501184559 19 323 0.0 8.0 0.00 0.00 0.00 53 1015.9
20260501184022 19 95 3.2 9.7 0.00 0.00 0.00 52 1016.0
20260501183523 19 298 1.6 9.7 0.00 0.00 0.00 56 1016.0
20260501183043 18 104 3.2 9.7 0.00 0.00 0.00 54 1016.1
20260501182519 19 125 0.0 6.4 0.00 0.00 0.00 55 1016.1
20260501182020 18 0 0.0 3.2 0.00 0.00 0.00 55 1016.2
20260501181540 18 0 0.0 9.7 0.00 0.00 0.00 54 1016.1